Tracking 30995 objects as of 6-Jul-2025
HD Live streaming from Space Station
objects crossing your sky now

COSMOS 1275 DEB

Track COSMOS 1275 DEB now!
10-day predictions


NORAD ID: 13815
Int'l Code: 1981-053HN
Perigee: 887.1 km
Apogee: 1,045.8 km
Inclination: 83.0 °
Period: 104.2 minutes
Semi major axis: 7337 km
RCS: 0.0181 m2 (small)
Launch date: June 4, 1981
Source: Commonwealth of Independent States (former USSR) (CIS)
Launch site: PLESETSK MISSILE AND SPACE COMPLEX (PKMTR)

Note: This is SATELLITE DEBRIS
Your satellite tracking list
Your tracking list is empty




NASA's NSSDC Master Catalog

Two Line Element Set (TLE):
1 13815U 81053HK  25186.58775662  .00001612  00000-0  14407-2 0  9991
2 13815  83.0250 129.9630 0108167 331.2897 151.0700 13.81299122121617
Source of the keplerian elements: AFSPC